Kezdőlap
METAR-TAF:

METAR-TAF

Repülőterek :

Pipestone Municipal Airport

Pipestone, Minnesota, Amerikai Egyesült Államok

földrajzi szélesség: 43-59N, földrajzi hosszúság: 096-19W, magasság: 529 m

Jelenlegi meteorológiai megfigyelések

A jelentés 21 perccel ezelõtt készült, 09:55 UTC
Kelet-délkeleti szél 8 kt
Hőmérséklet 11°C
Páratartalom 76%
Légköri nyomás 1015 hPa
Látótávolság: 16.1 km

METAR: KPQN 170955Z AUTO 12008KT 10SM 11/07 A2998 RMK AO2

Idő: 05:16 (10:16 UTC)


TAF: hiányzik

Meteorológiai megfigyelések és előrejelzések több, mint 4000 repülőtéren (METAR és TAF jelentéseket).

A térképen piros és sárga pontok jelzik az elérhető meteorológiai állomásokat.

Mozgassa az egeret a pont fölött, hogy megjelenjen az állomás neve.

Azután kattintson az időjárási megfigyelések és előrejelzések megtekintéséhez.

A térkép megváltoztatása: kattintson a fekete keresztel jelölt zöld gombra ráközelítéshez, a vonallal jelölt zöld gombra távolításhoz, vagy a zöld nyilakra a szomszédos térképek eléréséhez.


METAR-TAF: